Volver al catálogo

STARLINK-30219

ActivoComunicacionesVLEO
NORAD 57507·PAYLOAD·🇺🇸 United States

Lanzado Aug 7, 2023 desde Cape Canaveral Space Force Station

Loading…

Próximos Pases (próximas 24 horas)

TLE

ActualizadoSource: CelesTrak SupGP

Época: Sep 14, 2026, 22:31 UTC

1 57507C 23113N   26257.93868056 -.00022561  00000+0 -81693-3 0  2575
2 57507  43.0027  24.1705 0001550 267.3798 118.9920 15.27598586    11

Sigue STARLINK-30219 en tiempo real con AllMySat

Download on the App Store